Погода в Дашогузе

Погода в Дашогузе : погода сейчас, прогноз погоды и архив. Всё, что Вы хотите узнать о погоде в Дашогузе!

Поиск расширенной информации на нашем сайте:

Полезная информация:

Другие новости

Новости СМИ2

Главная страница сайта

Новости сайта

03.07.2017

Напоминаем, что на нашем специализированном сайте Метеоцентр.Азия вы можете получить высокодетализированные автоматические прогнозы погоды по пунктам России, СНГ и мира в авиационном формате (включающие направление и скорость ветра, видимость, явления погоды, количество и форму облачности, нижнюю и верхнюю границу облачности).

Рекомендуем:

Погода в Дашогузе - сегодня

Время (UTC), дата Ветер
(°,м/с) 
Видим.   Явления Облачность Т
(°С)
Тd
(°С)
f(%) Тe
(°С)
Pmin
(гПа)
dP
(гПа)
Po
(мм)
O2
(г/м3)
Тmin Tmax R s Состояние
почвы
09 15.09.19 280 (З) 10 км    ясно 
+25 +4.1 26 +25  1020.1  -0.6  758  279           
12 15.09.19 340 (С) 10 км    ясно 
+25.4 +3.6 24 +25  1019.6  -0.5  757  279           
15 15.09.19 010 (С) 10 км    ясно 
+22.4 +7.7 39 +22  1020.1  0.4  758  281    +26.2       
18 15.09.19 200 (Ю) 10 км    ясно 
+16.2 +4.5 46 +18  1020  -0.3  758  287    +26.2       
21 15.09.19 тихо ()   10 км    ясно 
+15 +5.8 54 +15  1019.6  -0.4  757  288           
00 16.09.19 230 (ЮЗ) 10 км    ясно 
+12 +9.1 82 +13  1020.2  0.6  758  291           
03 16.09.19 280 (З) 10 км    3/0 
[]
+13.4 +4.3 54 +14  1021.4  1.1  758  291  +11        сухая 
06 16.09.19 220 (ЮЗ) 10 км    3/0 средняя 
[Ac lent]
+23.8 +8.2 37 +24  1021.8  0.7  759  280  +11         
09 16.09.19 270 (З) 10 км    3/0 средняя 
[Ac lent]
+27.4 +7.1 28 +27  1020.2  -1.4  758  276           
12 16.09.19 220 (ЮЗ) 10 км    3/0 средняя 
[Ac lent]
+28.8 +6.7 25 +29  1018.7  -1.4  757  275           
15 16.09.19 130 (ЮВ) 10 км    ясно 
+23 +7.3 36 +23  1018.5  -0.4  757  280    +29.4       
18 16.09.19 150 (ЮВ) 10 км    ясно 
+18.4 +6.4 45 +19  1018.3  -0.3  756  285    +29.4       
21 16.09.19 150 (ЮВ) 10 км    ясно 
+15.7 +6.2 53 +16  1018  -0.5  756  287           
00 17.09.19 140 (ЮВ) 10 км    ясно 
+13.9 +5.5 57 +14  1017.2  -0.8  755  289           
03 17.09.19 150 (ЮВ) 10 км    ясно 
+15.4 +5.6 52 +16  1018  0.8  756  287  +11.9        сухая 
06 17.09.19 160 (Ю) 10 км    ясно 
+25.7 +10 37 +27  1017.9  0.3  756  277  +11.9         
09 17.09.19 130 (ЮВ) 10 км    3/0 средняя 
[Ac cast]
+29.4 +7.4 25 +29  1015.5  -2.3  755  273           
12 17.09.19 130 (ЮВ) 10 км    4/0 средняя, верхняя 
[Ac cast|Ci sp]
+29.9 +6.8 23 +30  1013.1  -2.3  753  272           
15 17.09.19 110 (В) 10 км    3/0 средняя 
[Ac trans]
+24.2 +8.1 36 +24  1012.2  -1.1  752  277    +30.5       
18 17.09.19 130 (ЮВ) 10 км    3/0 средняя 
[Ac lent]
+21.2 +7.7 42 +21  1011.8  -0.5  752  280    +30.5       
21 17.09.19 120 (ЮВ) 10 км    3/0 средняя 
[Ac lent]
+17.4 +7 50 +18  1011.2  -0.8  751  283           
00 18.09.19 130 (ЮВ) 10 км    3/0 средняя 
[Ac lent]
+15.4 +6.4 55 +15  1009.9  -1.3  750  285           
03 18.09.19 130 (ЮВ) 10 км    ясно 
+15.6 +4.8 49 +16  1010.8  0.9  751  285  +13.4        сухая 
06 18.09.19 190 (Ю) 10 км    ясно 
+28.1 +7.8 28 +28  1009.5  -0.9  750  273  +13.4         
09 18.09.19 240 (ЮЗ) 10 км    3/0 средняя 
[Ac trans]
+33.3 +0.6 12 +33  1008.9  -0.4  750  269           
Время (UTC), дата Ветер
(°,м/с) 
Видим.   Явления Облачность Т
(°С)
Тd
(°С)
f(%) Тe
(°С)
Pmin
(гПа)
dP
(гПа)
Po
(мм)
O2
(г/м3)
Тmin Tmax R s Состояние
почвы

Для получения пояснительной информации подведите курсор к названию столбца.

ПОГОДА в Дашогузе - архив

Всё, что Вы хотите узнать о погоде в Дашогузе - удобно и подробно!

Выберите нужную дату (начиная с 1 января 2018* года) и нажмите кнопку "Найти".
Будут отображены архивные сводки погоды по пункту Дашогуз, начиная с указанной даты.


Отображать данные в формате CSV (для использования в таблицах Excel)


Внимание! Наш архив погоды предназначен исключительно для личного некоммерческого использования в познавательных целях. Если Вам необходимы официальные справки о состоянии погоды (для производственных, юридических, коммерческих и т.п. целей), обращайтесь в органы Росгидромета.

*Примечание: данная дата относится к архиву по метеостанциям СССР (Россия, СНГ, Балтия).
Архив по метеостанциям Зарубежной Европы и Азии (кроме Китая) хранится 10 дней, по другим регионам земного шара (Китай, Африка, Америка, Австралия, Океания) - 1 день.

Дашогуз - район местоположения метеостанции


Название, широта, долгота, высота метеостанции:
Дашогуз (Ташауз) 41.8°ш. 59.8°д. 82 м над ур. моря [Туркменистан]

Дополнительная информация

В oтличие oт бoльшинства пoгoдных сайтoв мы публикуем пoдрoбную метеoинфoрмацию в детальнoм прoфессиoнальнoм фoрмате.

Характеристики температуры и влажнoсти вoздуха измеряются на высoте 2 м в тени вдали oт зданий и деревьев.
Скoрoсть ветра измеряется на высoте 10 м (на урoвне рoста челoвека скoрoсть ветра ниже в 1.5-2 раза). Если метеoстанция нахoдится в гoрoде или в лесу, тo скoрoсть ветра занижена на 2-4 м/с пo сравнению с oткрытым местoм. Скoрoсть ветра над акватoриями крупных рек и oзёр, а также на вершинах хoлмoв на 2-5 м/с выше, чем в oбычных услoвиях.
Атмoсфернoе давление в разных тoчках местнoсти мoжет значительнo oтличаться oт давления на метеoстанции, в зависимoсти oт услoвий рельефа (при пoдъёме на 10 м давление пoнижается примернo на 1 мм рт.ст.).